loading
DOY 175 | 2024-06-23T18:12:12Z

DELTA 1 R/B, 515

Orbit data source: Space-Track

DELTA 1 R/B, 515 is space debris in HEO originally from a launch on Thu, 13 Dec 1962 UTC launched from the Air Force Eastern Test Range (AFETR). Debris objects in space refer to the collection of defunct objects orbiting the Earth. Examples of debris include non-operational satellites, rocket bodies, and fragments generated from explosions, collisions, or faulty payload assembly.

Loading next visibility...
Loading greatness...
DELTA 1 R/B details
NORAD ID515
COSPAR ID
1962-068B
Orbit
HEO
Last TLE update1 day ago
Origin
Flag of USGSFC (US)
ManufacturerABL
BusAltair
MotorUnknown
Mass24 kg wet, 24 kg dry
Launch date (UTC)
1962-12-13 (62 years ago)
Launch vehicleUnknown
Launch site
Air Force Eastern Test Range (AFETR)
Object type
Payload
Rocket body
Debris
Radar Cross SectionMedium (>0.1 m² and <1 m²)
Predictive object data (real-time)
Latitude-9.43799°
Longitude112.06863°
Altitude5,866.402 km
Speed5.294 km/s
Apparent Right ascension14h 14m 59s
Apparent Declination-22° 09' 29"
Sunlit
Object is in daylight
Predictive observer data (real-time)
Local Sidereal Time05:21:21
Azimuth79.961° E
Elevation-46.9°
Doppler factor1
Orbital elements
Apogee7,419.599 km
Perigee1,319.833 km
Semi-major axis10,747.853 km
Eccentricity0.2837667
Inclination47.4994°
RAAN206.9837°
Arg. of periapsis118.5086°
True anomaly241.55656°
Mean anomaly272.9882°
Mean motion1.94787 °/min
BSTARUnknown
Period184.82 mins
Definitive object data (Epoch: 2024-06-22T11:33:35.79Z)
Latitude-0.00007°
Longitude122.44014°
Altitude5,048.179 km
Speed5.718 km/s
True Right ascension13h 47m 56s
True Declination0° 00' 00"
Sunlit
Object was in daylight at TLE epoch
TLE from 1 day ago
0 DELTA 1 R/B
1 00515U 62068B   24174.48166424 -.00000031  00000-0  00000-0 0  9991
2 00515  47.4994 206.9837 2837667 118.5086 272.9882  7.79242478751352
Epoch: 2024-06-22T11:33Z
No data available
Other satellites on launch #68 in the year 1962 (1962-12-13 UTC)

DELTA 1 R/B Visibility forecast

Observer location: 39.9160978°, -105.1181434, 0m alt.

DELTA 1 R/B is not visible in the next 10 days
Span
Click to sort rows by Start time (UTC) header in descending order
Start Az.
Max El. time (UTC)
Max El. Az.
Max El.
End time (UTC)
End Az.